Flag Weather past 2 weeks in Mürzzuschlag, Styria, Austria

Now
40 °F

Quite cool.


Feels Like: 40 °F
Forecast: 31 / 45 °F
Wind: 1 mph from North

Location: Eisenstadt

Current Time: Nov 22, 2014 at 1:25:36 AM

Latest Report: Nov 22, 2014 at 12:00 AM


Visibility: N/A

Pressure: 30.29 "Hg

Humidity: 86%

Dew point: 36 °F

Location of MürzzuschlagLocation

Historic Weather in Mürzzuschlag — Graph

°F

Mürzzuschlag temperature yesterday

Maximum temperature yesterday: 46 °F (at 11:00 AM)
Minimum temperature yesterday: 36 °F (at 7:00 PM)
Average temperature yesterday: 42 °F

Past Weeks' High & Low Weather Summary

 TemperatureHumidityPressure
High65 °F (Nov 11, 1:00 PM)99% (Nov 16, 10:00 PM)30.32 "Hg (Nov 16, 10:00 PM)
Low36 °F (Nov 21, 7:00 PM)60% (Nov 19, 1:00 PM)29.68 "Hg (Nov 18, 2:00 PM)
Average50 °F86%29.93 "Hg
* Reported Midnight between Nov 6 and Nov 7 — Midnight between Nov 21 and Nov 22, Mürzzuschlag, Weather by CustomWeather, © 2014

Note: Actual official high and low records may vary slightly from our data, if they occured in-between our weather recording intervals... More about our weather records

Advertising

Mürzzuschlag weather history for previous 24 hours

 ConditionsComfort  
Time TempWeatherWind HumidityBarometerVisibility
12:00 AM
Nov 22
40 °FQuite cool.1 mph86%30.29 "HgN/A
11:00 PM
Nov 21
40 °FQuite cool.1 mph84%30.29 "HgN/A
10:00 PM39 °FOvercast.No wind88%30.29 "Hg6 mi
9:00 PM40 °FChilly.No wind85%30.29 "HgN/A
8:00 PM38 °FChilly.1 mph88%30.29 "HgN/A
7:00 PM36 °FPassing clouds.2 mph90%30.29 "Hg6 mi
6:00 PM37 °FChilly.3 mph87%30.29 "HgN/A
5:00 PM40 °FQuite cool.2 mph81%30.28 "HgN/A
4:00 PM44 °FScattered clouds.3 mph73%30.28 "Hg7 mi
3:00 PM45 °FQuite cool.3 mph70%30.28 "HgN/A
2:00 PM46 °FCool.2 mph70%30.28 "HgN/A
1:00 PM46 °FCool.5 mph70%30.29 "HgN/A
12:00 PM45 °FCool.3 mph68%30.30 "HgN/A
11:00 AM46 °FCool.3 mph67%30.32 "HgN/A
10:00 AM46 °FCool.3 mph70%30.32 "HgN/A
9:00 AM45 °FQuite cool.1 mph74%30.30 "HgN/A
8:00 AM42 °FQuite cool.1 mph82%30.30 "HgN/A
7:00 AM42 °FPassing clouds.1 mph81%30.29 "Hg6 mi
6:00 AM42 °FClear.2 mph82%30.29 "Hg7 mi
5:00 AM42 °FPassing clouds.2 mph84%30.29 "Hg5 mi
3:00 AM39 °FChilly.1 mph94%30.29 "HgN/A
2:00 AM40 °FChilly.2 mph92%30.29 "HgN/A
1:00 AM40 °FOvercast.1 mph91%30.29 "Hg9 mi
Weather by CustomWeather, © 2014

See weather overviewHow to use our weather pages